Location: Boca de Tacagua
(10.5333°N, 66.9833°W)
Time: 14:04:06
(UTC+00:00)

ISS - Visible Passes

Search period start: 02 December 2022 00:00
Search period end: 12 December 2022 00:00
Orbit: 414 x 420 km, 51.6° (Epoch: 02 December)

Date Brightness Start Highest point End Pass type
(mag) Time Alt. Az. Time Alt. Az. Time Alt. Az.
07 Dec -1.7 23:14:03 10° N 23:14:52 15° N 23:14:52 15° N visible
08 Dec -1.8 22:27:00 10° NNE 22:28:34 13° NE 22:30:09 10° ENE visible
09 Dec -1.1 00:02:33 10° WNW 00:04:37 21° WSW 00:04:37 21° WSW visible
09 Dec -2.9 23:13:39 10° NW 23:16:53 51° SW 23:20:08 10° SSE visible
10 Dec -3.8 22:25:16 10° NNW 22:28:33 59° NE 22:31:50 10° SE visible
11 Dec -0.1 23:15:44 10° WSW 23:16:38 11° SW 23:17:32 10° SW visible
